This is the latest recevied weather packets stored in our database for station/object K4M9. If no packets are shown the sender has not sent any weather packets the latest 10 day(s).
| Time | Temp. | Humidity | Pressure | Rain* | Wind** | Luminosity | Snow |
|---|---|---|---|---|---|---|---|
| 1777659209 | 17.78° C | 36% | 1018.6 hPa | - | - | - | - |
| 1777658607 | 16.67° C | 39% | 1019 hPa | - | - | - | - |
| 1777658008 | 16.67° C | 39% | 1019 hPa | - | - | - | - |
| 1777657410 | 16.67° C | 39% | 1019 hPa | - | - | - | - |
| 1777656809 | 16.67° C | 39% | 1018.6 hPa | - | - | - | - |
| 1777656208 | 16.67° C | 39% | 1018.6 hPa | - | - | - | - |
| 1777655607 | 16.67° C | 36% | 1019 hPa | - | - | - | - |
| 1777655005 | 16.67° C | 36% | 1019 hPa | - | - | - | - |
| 1777654406 | 16.67° C | 39% | 1019.3 hPa | - | - | - | - |
| 1777653807 | 16.67° C | 39% | 1019.3 hPa | - | - | - | - |
| 1777653205 | 15.56° C | 41% | 1019.3 hPa | - | - | - | - |
| 1777652606 | 15.56° C | 41% | 1019.3 hPa | - | - | - | - |
| 1777652008 | 15.56° C | 41% | 1019.6 hPa | - | - | - | - |
| 1777651412 | 15.56° C | 41% | 1019.6 hPa | - | - | - | - |
| 1777650807 | 15.56° C | 41% | 1019.6 hPa | - | - | - | - |
| 1777650208 | 15.56° C | 41% | 1019.6 hPa | - | - | - | - |
| 1777649608 | 15.56° C | 41% | 1019.3 hPa | - | - | - | - |
| 1777649005 | 15.56° C | 41% | 1019.3 hPa | - | - | - | - |
| 1777648406 | 15° C | 44% | 1019.3 hPa | - | - | - | - |
| 1777647809 | 15° C | 44% | 1019.3 hPa | - | - | - | - |
| 1777647208 | 15° C | 51% | 1019 hPa | - | - | - | - |
| 1777646604 | 15° C | 51% | 1019 hPa | - | - | - | - |
| 1777646005 | 13.89° C | 62% | 1019 hPa | - | - | - | - |
| 1777645404 | 13.89° C | 62% | 1019 hPa | - | - | - | - |
| 1777644802 | 13.89° C | 62% | 1018.6 hPa | - | - | - | - |
* Rain since midnight (hover to see other rain measurements)
** Current wind speed in m/s (hover to see current wind gust speed)